Temperature
23 23 22 22 21 21 22 24 24 24 23 23 23 22 22 21 20 19 19 19 19 19 19 19 19 19 19 19 19 19 19 19 19 19 19 19 19 19 19 19 19 18 18 18 18 18 18 18 18
23 23 22 22 21 21 23 24 24 24 24 23 23 22 21 20 20 19 19 19 20 19 19 19 19 19 19 19 19 19 19 19 19 19 19 19 19 19 19 19 19 18 18 18 18 18 18 18 18
23 23 22 21 22 22 23 24 24 24 24 24 23 22 21 20 20 19 19 19 20 20 19 19 19 19 19 19 19 19 19 19 19 19 19 19 19 19 19 19 18 18 18 18 18 18 18 18 18
24 23 22 21 23 24 25 25 25 24 24 23 23 22 21 21 20 20 20 20 20 20 19 19 19 19 19 19 19 19 19 19 19 19 19 19 19 19 19 19 19 18 18 18 18 18 18 18 18
24 23 22 22 24 25 25 26 25 24 24 23 22 21 21 21 21 20 20 20 20 20 19 19 19 19 19 19 19 19 19 19 19 19 19 19 19 19 19 19 19 18 18 18 18 18 18 18 18
24 22 22 22 25 26 26 26 25 24 23 22 22 21 20 20 20 20 20 20 20 20 19 19 19 19 19 19 19 19 19 19 19 19 19 19 19 19 19 19 19 19 18 18 18 18 18 18 18
24 22 23 24 25 25 26 26 25 24 23 23 22 21 20 20 20 20 20 20 20 20 20 19 19 19 19 19 19 19 19 19 19 19 19 19 19 19 19 19 18 19 19 19 18 18 18 18 18
25 23 24 24 25 25 26 26 25 24 24 23 22 21 20 20 20 20 20 20 20 20 20 19 19 19 19 19 19 19 19 19 19 19 19 19 19 19 18 19 18 18 18 18 18 18 18 18 18
26 23 23 25 25 25 26 26 25 24 24 23 23 22 21 21 21 20 20 20 20 20 19 19 19 19 19 19 19 19 19 19 19 19 19 19 19 18 18 18 18 18 18 18 18 18 18 18 18
26 23 25 26 25 25 26 26 25 24 23 22 22 21 21 21 21 21 20 20 20 20 19 19 19 19 19 19 19 19 19 18 18 18 18 18 18 18 18 18 18 18 18 18 18 18 18 18 18
26 25 26 27 27 27 26 26 25 24 22 22 22 21 21 21 21 21 20 20 20 20 20 19 19 19 19 19 19 19 18 18 18 18 18 18 18 18 18 18 18 18 18 18 18 18 18 18 18
27 27 28 27 28 27 27 26 25 24 23 23 22 22 21 21 21 21 20 20 20 20 20 20 19 19 19 19 19 19 18 18 18 18 18 18 18 18 18 18 18 18 18 18 18 18 18 18 18
27 27 28 28 28 28 27 26 25 24 23 23 22 22 21 21 21 21 21 21 20 20 20 20 20 19 19 19 19 18 18 18 18 18 18 18 18 18 18 18 18 18 18 18 18 18 18 18 18
27 28 28 28 28 27 26 25 25 24 23 23 22 22 22 21 21 21 21 20 20 20 20 20 20 19 19 19 19 19 18 18 18 18 18 18 18 18 18 18 18 18 18 18 18 18 18 18 18
28 27 27 27 27 27 26 24 24 24 24 23 22 22 22 22 21 21 21 21 20 20 20 20 20 19 19 19 19 19 18 18 18 18 18 18 18 18 18 18 18 18 18 18 18 18 18 18 18
27 26 25 26 27 27 25 23 24 24 24 23 23 22 22 22 21 21 21 21 21 20 20 20 20 19 19 19 19 19 19 18 18 18 18 18 18 18 18 18 18 18 18 18 18 18 18 18 18
25 24 25 26 27 26 24 23 24 24 24 23 23 22 22 22 22 21 21 21 21 21 20 20 20 20 19 19 19 19 19 19 18 18 18 18 18 18 18 18 18 18 18 18 18 18 18 18 18
24 25 26 25 26 26 25 24 24 25 24 23 23 23 22 22 22 22 22 21 21 21 20 20 20 20 19 19 19 19 19 19 18 18 18 18 18 18 18 18 18 18 18 18 18 18 18 18 18
26 26 25 26 27 26 25 24 24 24 24 23 23 23 22 22 22 22 22 21 21 21 21 20 20 20 20 19 19 19 19 19 19 19 18 18 18 18 18 18 18 18 18 18 18 18 18 18 18
26 26 25 26 27 26 24 24 24 24 24 24 23 23 23 22 22 22 22 22 21 21 21 20 20 20 20 19 19 19 19 19 19 19 18 18 18 18 18 18 18 18 18 18 18 18 18 18 18
26 26 26 26 26 26 25 24 24 24 25 24 24 23 23 23 23 22 22 22 22 21 21 21 20 20 20 20 19 19 19 19 19 19 19 18 18 18 18 18 18 18 18 18 18 18 18 18 18
26 27 27 27 24 23 24 22 23 23 23 24 24 24 23 23 23 22 22 22 22 22 21 21 21 20 20 20 19 19 19 19 19 19 19 19 18 18 18 18 18 18 18 18 18 18 18 18 18
27 28 27 26 24 23 23 22 22 22 22 23 24 24 24 23 23 23 23 23 22 22 21 21 21 20 20 20 20 20 19 19 19 19 19 19 19 19 19 18 18 18 18 18 18 18 18 18 18
28 26 25 22 21 22 23 22 22 22 23 23 24 24 24 23 23 23 23 23 22 22 22 21 21 21 20 20 20 20 20 19 19 19 19 19 19 19 19 18 18 18 18 18 18 18 18 17 17
26 23 22 22 21 22 22 23 22 23 24 24 24 24 24 24 23 23 23 22 22 22 22 21 21 21 21 20 20 20 20 20 19 19 19 19 19 19 19 18 18 18 18 18 18 18 17 17 17
25 23 22 23 22 22 22 23 23 24 25 26 25 25 24 24 24 23 23 23 23 22 22 22 21 21 21 21 20 20 20 20 19 19 19 19 19 19 19 19 19 18 18 18 18 18 18 17 17
26 24 22 21 22 22 22 22 23 24 24 24 25 24 24 24 24 24 23 23 23 22 22 22 21 21 21 21 20 20 20 20 20 19 19 19 19 19 19 19 19 18 18 18 18 18 18 17 17
26 24 21 21 21 22 22 22 22 23 23 24 24 24 24 24 24 24 23 23 23 23 22 22 22 21 21 21 21 20 20 20 20 19 19 19 19 19 18 18 18 18 18 18 18 18 18 17 17
26 25 22 20 20 21 21 22 24 23 23 23 24 24 24 24 24 24 23 23 23 22 22 22 21 21 21 21 21 20 20 20 20 19 19 19 19 19 18 18 18 18 18 18 18 18 17 17 17
26 25 22 22 21 20 20 22 24 23 23 24 24 24 24 24 24 24 23 23 22 22 22 21 21 21 21 21 21 20 20 20 20 19 19 19 19 18 18 18 18 18 18 18 17 17 17 17 17
Wind_Speed
10 8 4 1 3 4 5 5 7 8 6 8 10 10 9 7 5 6 3 5 7 5 6 9 11 12 13 13 13 13 13 14 14 14 14 14 14 14 15 15 15 14 14 14 14 14 15 16 16
7 5 2 2 4 4 4 6 10 10 10 10 10 11 9 7 6 8 4 6 7 6 7 9 12 13 13 13 13 13 14 14 14 14 14 14 14 15 15 15 14 14 14 14 14 14 15 16 16
5 3 2 3 3 4 5 8 12 11 10 8 6 7 5 5 6 5 6 8 7 7 7 9 12 13 13 13 13 13 13 14 14 14 14 14 14 14 14 14 14 13 13 13 14 13 14 14 13
2 1 2 3 4 4 7 9 13 12 9 8 8 7 4 4 4 8 11 10 9 7 8 9 12 13 13 13 13 13 13 13 13 14 14 13 13 13 14 13 13 12 13 13 13 12 12 12 12
2 2 3 3 3 4 7 10 12 10 6 8 10 7 5 4 10 13 12 11 10 7 7 9 12 12 13 13 13 13 13 13 13 13 12 12 12 12 13 13 13 12 12 11 11 11 11 10 10
2 3 3 3 6 6 7 10 12 13 12 10 9 7 4 5 10 11 11 9 9 8 7 8 11 12 12 13 13 12 12 12 12 11 11 11 11 11 11 12 12 11 10 10 10 11 10 9 9
3 3 3 5 6 6 7 9 11 12 11 7 7 6 4 5 8 10 10 9 8 8 7 6 7 10 11 11 11 11 11 11 11 11 10 10 10 10 10 11 10 10 9 9 10 10 9 8 8
4 3 3 4 7 6 8 8 10 12 9 10 7 7 7 8 9 10 9 8 8 6 5 5 6 7 7 8 10 10 10 10 10 10 10 10 10 9 9 9 9 9 9 9 8 8 8 8 7
3 4 3 5 7 7 9 10 7 8 11 6 5 7 10 12 11 11 9 7 6 6 4 4 5 5 6 7 8 8 8 8 9 8 9 8 7 7 7 8 9 8 8 7 6 6 6 6 6
4 4 5 5 8 9 10 11 9 8 11 9 10 11 12 12 12 11 10 8 6 6 5 5 5 5 5 6 7 6 6 5 6 6 6 5 5 5 6 7 7 7 6 5 4 3 3 4 3
4 4 4 6 7 9 9 9 8 11 9 12 16 15 13 12 11 10 9 8 7 6 6 5 4 5 5 4 5 4 4 4 4 4 4 4 4 3 3 3 3 3 3 2 1 1 1 2 2
5 3 5 6 7 8 9 8 9 9 10 14 16 16 13 13 11 10 9 8 7 7 6 5 5 5 5 5 4 4 3 3 3 3 4 4 3 2 2 2 1 1 1 1 0 0 1 2 2
6 3 4 5 7 8 11 10 10 10 14 15 16 15 13 13 10 9 9 9 8 7 6 6 6 5 4 4 3 4 3 3 3 3 4 4 3 2 2 1 1 1 1 2 1 1 1 1 2
4 4 4 4 7 9 13 10 8 11 15 16 15 13 12 12 11 9 9 8 8 8 7 6 6 5 5 4 3 3 4 4 4 3 3 4 4 3 3 2 1 1 1 2 2 1 1 1 2
4 4 3 2 5 6 11 7 8 14 15 15 14 13 12 11 11 10 10 9 8 7 7 6 6 5 5 4 4 4 4 4 3 3 3 4 5 4 3 2 1 1 2 2 2 2 1 1 1
3 3 1 2 3 4 8 6 8 13 15 14 13 13 12 10 11 11 11 10 9 8 7 6 7 6 4 4 3 3 3 3 3 3 4 4 4 5 3 2 1 1 2 2 2 1 1 1 1
2 1 2 3 3 5 6 5 9 11 14 13 12 12 12 11 10 10 11 11 11 9 8 6 6 6 5 4 3 2 3 3 3 3 3 3 4 4 3 2 1 1 1 1 1 1 1 1 1
3 3 2 3 3 4 4 6 10 11 12 12 12 11 12 12 12 11 11 11 10 9 8 7 6 5 4 3 2 2 2 1 2 2 3 4 3 4 3 2 1 1 1 1 1 1 0 0 0
3 2 1 3 3 4 5 7 10 10 10 10 10 11 12 12 11 11 12 12 10 8 8 7 7 5 4 3 2 2 1 1 1 1 3 4 3 3 3 2 1 1 1 0 0 1 1 1 1
1 1 1 1 1 4 4 5 8 10 12 13 14 12 12 11 10 11 11 11 10 10 9 8 7 6 5 4 3 2 2 1 1 1 2 4 4 4 3 2 1 1 1 1 1 1 1 1 1
2 3 3 3 1 2 4 1 4 6 8 10 12 13 13 15 14 13 12 12 11 11 10 9 7 7 6 5 3 2 2 1 1 1 1 2 3 4 3 3 2 2 2 1 0 1 1 1 1
4 6 6 5 4 1 3 1 5 5 7 9 11 12 13 13 13 13 13 12 12 12 10 8 8 7 6 5 4 4 3 3 3 2 2 1 2 3 3 2 2 2 2 1 1 1 1 1 1
6 5 4 4 4 2 2 2 6 3 6 11 12 13 13 13 14 14 14 14 13 12 10 9 8 7 6 5 6 5 3 3 2 2 2 1 1 2 2 2 2 2 2 2 1 1 1 1 1
4 4 5 5 4 2 3 3 5 5 9 10 11 13 14 13 13 13 12 11 10 10 10 9 8 7 7 7 6 6 5 4 3 2 2 2 1 1 1 2 2 2 2 2 2 2 1 1 1
3 6 4 5 4 3 3 2 7 8 8 11 13 13 13 13 13 12 12 11 11 11 11 10 9 8 7 7 6 6 6 5 5 4 3 3 1 1 2 1 2 2 2 2 2 1 1 1 1
4 8 7 5 3 3 2 3 6 5 5 6 10 11 11 12 12 13 13 13 12 12 11 11 10 9 8 7 6 5 5 4 3 4 3 4 3 3 2 2 2 2 2 2 1 1 1 0 0
3 3 8 7 2 1 3 4 5 1 2 6 9 10 11 12 12 12 12 11 11 12 11 11 11 9 8 7 6 5 5 4 4 4 3 3 3 2 2 2 2 2 2 2 1 1 1 0 0
5 6 6 6 5 2 3 3 4 4 5 7 9 10 11 10 10 10 10 10 10 10 9 9 9 9 8 8 7 6 5 5 4 3 3 3 3 2 2 2 2 2 2 2 2 1 1 1 0
2 3 5 5 6 6 3 5 5 8 7 8 9 9 10 11 11 10 9 10 10 8 9 9 8 8 7 8 7 5 5 5 4 4 4 3 3 2 2 2 2 2 2 2 1 1 1 0 1
3 4 6 5 3 5 5 6 4 5 6 7 8 8 8 9 9 10 9 9 8 8 8 9 9 9 8 8 6 6 5 4 4 4 4 3 3 3 3 2 2 2 2 2 2 1 1 1 1
Wind_Direction
169 172 167 136 52 54 81 97 101 86 68 65 73 78 78 65 90 125 174 136 121 121 114 108 106 106 104 102 99 98 97 98 98 100 102 103 104 108 114 118 119 120 121 122 125 125 126 128 129
164 173 159 56 77 80 79 99 96 100 118 107 83 81 75 71 87 114 130 132 123 118 113 112 109 109 108 105 104 103 102 102 102 101 103 104 105 108 114 119 119 119 119 122 125 125 126 129 132
173 183 112 75 91 122 119 115 112 108 104 95 86 69 72 97 104 126 145 134 117 107 111 115 112 111 112 109 107 107 106 105 103 104 105 105 106 108 113 117 119 120 120 121 124 126 129 134 137
148 98 49 78 107 134 131 132 119 110 87 79 91 73 64 89 114 133 135 131 120 113 115 116 114 114 114 111 110 108 108 107 105 106 107 106 107 109 113 117 120 121 122 122 124 128 130 137 141
120 90 63 66 108 108 117 124 117 108 93 92 94 93 72 64 111 128 131 131 127 121 120 123 119 116 116 114 113 111 109 110 109 108 109 109 111 114 115 117 119 120 123 128 130 130 133 137 146
77 87 89 104 105 103 110 114 105 101 108 107 102 100 86 111 121 133 134 132 130 130 126 129 125 119 116 115 115 115 112 112 111 111 111 111 113 117 122 122 123 125 128 132 134 135 136 137 144
120 111 135 130 110 104 118 116 112 120 122 123 122 101 111 131 136 135 132 132 126 127 124 125 132 127 121 117 116 116 114 112 110 111 111 114 115 119 126 128 128 128 131 133 135 137 142 141 138
159 114 106 112 114 119 127 112 125 128 118 126 122 126 152 164 139 122 117 119 119 118 120 122 130 131 128 126 116 114 115 113 109 110 115 119 119 121 124 129 132 131 132 132 135 140 146 145 142
135 95 140 150 136 133 124 109 107 107 116 120 104 125 149 146 126 116 111 108 112 115 121 128 129 134 135 136 124 118 114 111 108 110 116 118 121 124 129 135 135 137 141 143 143 148 152 153 152
120 131 182 169 149 141 131 127 124 104 108 106 107 114 128 129 123 123 125 126 125 126 134 131 126 130 136 131 128 126 118 111 107 111 116 118 126 136 135 137 143 144 146 150 154 166 168 168 163
127 149 144 131 141 135 128 127 118 118 124 141 141 140 137 132 129 131 135 138 141 138 130 125 124 125 121 118 128 129 122 111 99 103 117 120 116 124 131 143 144 148 153 164 163 256 220 175 175
101 103 119 142 138 130 130 125 114 124 147 148 142 141 138 137 139 143 144 138 136 131 129 129 119 108 108 115 121 129 123 119 115 112 115 121 112 108 131 143 174 186 180 154 233 218 163 160 156
100 101 97 124 115 119 110 114 114 126 137 139 137 137 139 143 146 149 144 135 129 129 131 129 117 110 107 104 110 115 121 126 127 118 114 126 125 115 128 131 142 145 163 153 148 115 116 148 154
151 142 126 116 105 114 114 112 108 138 141 142 143 146 149 150 150 142 140 137 136 135 137 133 122 117 112 105 101 111 127 126 118 126 127 121 130 128 126 107 94 81 131 155 144 124 117 137 143
112 114 90 103 105 123 111 98 133 149 144 146 152 155 155 155 152 148 150 147 143 138 135 135 133 121 118 115 113 118 130 126 120 134 125 122 124 125 122 102 84 93 101 103 97 79 77 70 114
74 83 129 244 127 141 111 142 161 156 151 154 160 161 157 156 156 155 152 148 148 145 143 149 142 130 124 118 113 117 129 132 136 132 126 129 125 124 115 98 95 97 86 77 87 80 62 29 38
41 150 213 260 177 142 115 159 171 166 158 162 165 163 159 159 161 161 157 156 156 154 152 152 139 140 141 128 115 116 129 133 150 137 133 140 133 124 122 126 142 83 66 58 82 74 102 56 345
233 204 205 222 203 137 141 173 171 174 166 166 167 164 165 169 174 169 162 159 159 157 152 147 143 150 146 124 93 79 87 112 155 159 156 156 146 136 133 137 128 84 76 49 52 76 60 136 278
183 183 238 236 193 147 173 177 178 177 170 171 174 173 173 177 177 168 164 162 158 156 152 151 151 160 148 133 136 136 156 167 170 193 180 175 168 155 144 137 123 100 116 154 86 103 57 0 20
138 123 234 328 101 134 164 190 180 178 184 181 179 180 179 174 171 173 167 166 165 165 166 163 164 167 171 170 170 170 169 190 199 201 176 182 180 177 163 155 160 132 126 78 61 94 75 334 32
225 197 197 195 55 74 117 331 209 199 197 188 181 178 181 180 176 175 171 172 169 171 172 172 174 173 177 171 149 125 85 58 54 75 203 212 191 183 167 159 160 155 148 156 169 138 135 255 309
227 215 189 174 133 228 134 206 266 206 199 195 186 180 184 183 177 174 174 174 176 178 174 168 170 174 178 166 157 158 162 176 202 201 204 224 189 186 179 167 167 170 164 175 220 169 169 161 272
213 191 165 164 126 75 35 111 283 204 195 201 188 183 184 183 179 180 180 180 179 177 173 171 167 175 180 174 173 170 176 191 196 186 186 204 224 214 195 180 169 178 182 193 222 246 183 175 190
161 78 57 59 81 60 237 147 269 225 206 196 190 183 181 180 179 180 182 175 175 174 172 171 169 179 181 179 178 176 182 184 179 189 193 210 228 245 237 179 173 182 190 200 217 229 226 232 213
88 94 47 14 21 261 246 159 246 240 206 191 183 183 180 178 177 175 173 172 175 176 177 175 175 183 184 182 186 187 190 190 193 198 193 192 201 223 242 210 192 190 200 205 202 202 232 244 239
200 142 153 175 200 264 330 228 259 241 207 181 172 175 172 175 176 177 179 176 178 179 178 177 180 185 186 185 189 189 188 190 197 193 189 194 204 215 213 201 198 199 197 206 186 213 247 255 261
166 163 162 137 138 129 280 283 313 333 162 163 163 166 176 179 177 178 178 176 176 179 182 181 179 182 185 186 184 187 187 189 192 193 191 196 207 209 208 200 184 200 186 172 156 188 248 175 316
153 153 97 112 142 211 288 262 229 222 193 178 174 177 180 176 173 175 174 174 174 176 177 173 176 181 183 186 192 196 197 193 187 182 194 201 213 211 203 200 175 184 180 166 155 191 245 138 270
23 81 108 121 148 151 207 263 222 198 190 182 180 175 173 173 169 165 168 171 170 170 171 174 181 180 183 189 193 194 191 187 185 193 208 210 211 199 194 192 175 186 196 192 174 207 205 183 288
173 174 145 146 201 159 163 255 262 187 179 164 170 164 158 157 158 158 161 160 161 166 172 180 183 183 190 191 187 191 188 180 187 202 212 207 205 205 201 183 173 185 192 195 188 209 239 207 241
Height
1505 1505 1505 1506 1508 1516 1517 1510 1505 1504 1506 1506 1505 1505 1508 1512 1517 1524 1521 1518 1518 1516 1514 1512 1511 1510 1509 1509 1508 1508 1508 1508 1508 1508 1508 1509 1509 1510 1510 1512 1513 1515 1516 1518 1519 1520 1521 1523 1525
1505 1505 1506 1507 1514 1527 1521 1509 1507 1506 1507 1507 1507 1509 1511 1515 1516 1519 1519 1519 1519 1517 1516 1514 1513 1512 1511 1511 1510 1510 1510 1510 1510 1510 1510 1511 1511 1512 1512 1514 1516 1517 1519 1520 1521 1522 1523 1525 1527
1505 1506 1508 1509 1516 1523 1518 1508 1506 1507 1507 1506 1509 1511 1514 1517 1519 1519 1520 1520 1520 1519 1518 1517 1516 1514 1514 1513 1513 1512 1513 1513 1513 1513 1513 1514 1514 1514 1515 1517 1518 1519 1521 1522 1523 1524 1525 1527 1529
1506 1507 1509 1513 1516 1508 1506 1505 1505 1507 1509 1509 1510 1515 1517 1520 1520 1520 1521 1522 1521 1521 1520 1519 1518 1517 1516 1516 1515 1515 1515 1515 1515 1515 1516 1516 1517 1517 1518 1519 1520 1521 1522 1523 1524 1526 1527 1529 1531
1506 1507 1512 1517 1512 1505 1503 1504 1505 1506 1509 1512 1512 1517 1520 1522 1521 1522 1523 1523 1523 1523 1522 1521 1520 1519 1519 1519 1518 1518 1518 1518 1518 1518 1519 1519 1519 1520 1520 1521 1522 1523 1525 1526 1526 1527 1529 1531 1532
1506 1507 1519 1523 1512 1505 1505 1504 1506 1508 1512 1514 1515 1518 1522 1524 1523 1524 1525 1525 1525 1525 1524 1524 1523 1522 1522 1521 1521 1521 1521 1521 1521 1521 1522 1522 1522 1522 1523 1523 1525 1526 1527 1527 1528 1529 1530 1532 1534
1506 1510 1517 1515 1513 1510 1507 1506 1507 1510 1513 1515 1516 1519 1524 1526 1525 1526 1527 1527 1527 1527 1527 1526 1526 1525 1525 1524 1524 1524 1524 1524 1524 1524 1524 1524 1524 1524 1525 1526 1527 1528 1528 1529 1529 1531 1533 1534 1536
1504 1508 1513 1513 1513 1511 1506 1506 1508 1510 1514 1516 1517 1519 1523 1526 1527 1527 1528 1529 1529 1529 1529 1528 1528 1528 1528 1527 1527 1527 1527 1527 1527 1527 1527 1527 1527 1527 1528 1528 1529 1530 1531 1532 1533 1534 1535 1537 1538
1503 1511 1517 1512 1511 1509 1506 1507 1511 1512 1514 1517 1518 1519 1522 1525 1527 1528 1529 1530 1530 1531 1531 1530 1530 1530 1530 1530 1530 1530 1530 1530 1530 1530 1530 1530 1530 1530 1531 1531 1532 1533 1534 1535 1536 1537 1538 1539 1540
1501 1512 1509 1502 1502 1504 1505 1507 1510 1514 1516 1518 1520 1522 1524 1526 1528 1529 1530 1530 1531 1532 1532 1532 1532 1532 1532 1532 1532 1532 1532 1532 1532 1532 1532 1532 1533 1533 1533 1534 1535 1535 1536 1537 1538 1539 1539 1540 1540
1499 1504 1500 1499 1499 1502 1505 1507 1510 1514 1518 1518 1519 1522 1525 1527 1528 1529 1530 1531 1532 1533 1533 1533 1534 1534 1534 1534 1534 1534 1534 1534 1535 1535 1535 1535 1535 1536 1536 1537 1537 1538 1538 1539 1540 1540 1541 1541 1541
1499 1499 1498 1499 1500 1502 1504 1507 1511 1513 1516 1518 1519 1522 1524 1527 1528 1530 1531 1532 1533 1534 1535 1535 1535 1535 1536 1536 1536 1536 1536 1536 1536 1537 1537 1537 1537 1538 1538 1539 1539 1540 1540 1541 1541 1541 1542 1542 1542
1500 1500 1499 1500 1501 1503 1505 1508 1511 1515 1517 1520 1522 1524 1526 1527 1529 1531 1532 1533 1534 1535 1536 1536 1537 1537 1537 1538 1538 1538 1538 1538 1538 1538 1539 1539 1539 1539 1540 1540 1541 1541 1541 1542 1542 1542 1542 1542 1542
1500 1500 1501 1502 1502 1505 1507 1511 1513 1518 1518 1521 1523 1525 1527 1528 1530 1531 1533 1534 1534 1535 1536 1537 1538 1538 1539 1539 1539 1539 1539 1540 1540 1540 1540 1540 1540 1541 1541 1542 1542 1542 1542 1543 1543 1543 1542 1542 1543
1500 1503 1504 1504 1504 1507 1509 1516 1515 1517 1519 1521 1523 1525 1527 1529 1530 1531 1533 1534 1535 1536 1537 1538 1539 1539 1540 1540 1540 1541 1541 1541 1541 1542 1542 1542 1542 1542 1543 1543 1543 1543 1543 1543 1543 1543 1543 1543 1543
1502 1509 1515 1508 1505 1507 1513 1525 1517 1517 1518 1521 1523 1525 1527 1529 1530 1531 1533 1534 1535 1536 1537 1538 1539 1540 1541 1541 1541 1542 1542 1542 1543 1543 1543 1543 1544 1544 1544 1544 1544 1544 1544 1544 1543 1543 1543 1543 1543
1512 1520 1518 1511 1505 1507 1513 1521 1517 1517 1518 1520 1522 1524 1526 1528 1530 1531 1533 1534 1535 1536 1537 1538 1539 1540 1541 1542 1542 1543 1543 1543 1544 1544 1544 1544 1545 1545 1545 1545 1545 1545 1544 1544 1544 1544 1543 1543 1542
1521 1519 1516 1514 1506 1507 1513 1516 1515 1516 1517 1519 1522 1523 1525 1527 1528 1530 1532 1534 1535 1536 1538 1538 1539 1540 1541 1542 1543 1543 1544 1544 1544 1545 1545 1545 1545 1545 1545 1545 1545 1545 1545 1544 1544 1544 1543 1543 1542
1507 1513 1516 1510 1503 1508 1513 1515 1514 1515 1518 1520 1521 1522 1524 1525 1528 1530 1531 1533 1535 1536 1537 1538 1539 1540 1541 1542 1542 1543 1544 1544 1545 1545 1545 1546 1546 1546 1546 1545 1545 1545 1544 1544 1544 1544 1543 1542 1542
1505 1513 1514 1508 1503 1508 1514 1515 1512 1513 1515 1516 1518 1520 1522 1524 1527 1529 1530 1532 1533 1535 1536 1538 1539 1540 1541 1542 1542 1543 1544 1544 1545 1545 1545 1546 1546 1546 1546 1545 1545 1545 1544 1544 1543 1543 1542 1542 1541
1506 1511 1511 1511 1507 1508 1515 1522 1516 1513 1513 1514 1515 1517 1520 1521 1523 1526 1528 1530 1532 1533 1535 1536 1538 1539 1540 1541 1542 1543 1543 1544 1544 1544 1545 1545 1545 1546 1545 1545 1545 1544 1544 1543 1543 1542 1541 1541 1541
1509 1499 1500 1504 1516 1525 1521 1539 1522 1515 1514 1513 1514 1515 1517 1520 1521 1523 1526 1528 1530 1532 1533 1535 1537 1538 1539 1540 1541 1541 1542 1542 1543 1544 1544 1545 1545 1545 1544 1544 1544 1544 1543 1543 1542 1541 1541 1540 1539
1497 1492 1497 1503 1515 1526 1525 1536 1529 1516 1517 1512 1510 1512 1515 1517 1519 1521 1524 1526 1528 1530 1532 1534 1536 1537 1538 1539 1540 1541 1541 1542 1543 1543 1544 1544 1544 1544 1544 1544 1543 1543 1542 1542 1541 1540 1539 1539 1538
1489 1496 1503 1512 1523 1539 1528 1535 1534 1518 1511 1508 1507 1509 1512 1515 1518 1520 1522 1525 1527 1529 1531 1533 1534 1536 1537 1538 1539 1539 1540 1541 1542 1542 1542 1543 1543 1543 1543 1543 1542 1542 1541 1541 1540 1539 1538 1537 1537
1492 1513 1534 1539 1546 1544 1525 1529 1526 1506 1501 1501 1503 1506 1509 1512 1515 1517 1520 1522 1525 1527 1529 1531 1532 1534 1535 1537 1538 1538 1539 1540 1541 1541 1541 1542 1542 1542 1542 1542 1541 1541 1540 1539 1539 1538 1537 1536 1535
1496 1508 1533 1547 1550 1542 1527 1528 1514 1498 1497 1497 1500 1503 1506 1509 1512 1514 1516 1519 1522 1525 1527 1529 1530 1532 1534 1535 1536 1537 1538 1539 1539 1540 1540 1541 1541 1541 1541 1541 1540 1539 1539 1538 1538 1537 1536 1535 1534
1494 1504 1506 1527 1535 1541 1535 1523 1508 1498 1497 1498 1500 1502 1505 1507 1510 1512 1514 1517 1520 1522 1524 1526 1528 1530 1532 1533 1535 1535 1536 1537 1538 1539 1539 1540 1540 1540 1540 1539 1539 1538 1537 1537 1536 1535 1534 1533 1533
1485 1493 1512 1527 1543 1548 1537 1529 1523 1507 1501 1498 1499 1501 1503 1506 1508 1511 1513 1516 1518 1520 1523 1525 1526 1528 1530 1531 1533 1534 1535 1535 1536 1537 1537 1538 1538 1539 1538 1538 1537 1537 1536 1535 1534 1533 1532 1532 1531
1490 1496 1507 1522 1527 1543 1547 1533 1501 1500 1497 1496 1497 1499 1501 1503 1506 1510 1512 1515 1517 1519 1521 1523 1524 1526 1528 1530 1531 1532 1533 1534 1535 1535 1536 1536 1536 1537 1537 1536 1536 1535 1534 1534 1533 1532 1531 1530 1529
1483 1491 1503 1520 1527 1530 1537 1527 1492 1492 1491 1493 1496 1498 1501 1502 1505 1508 1511 1513 1515 1517 1519 1521 1522 1524 1526 1528 1529 1530 1531 1532 1533 1533 1534 1534 1535 1535 1535 1534 1534 1533 1533 1532 1531 1530 1530 1529 1528